Regional Weather Roundup
Issued by NWS

Home | Current Version | Previous Version | Graphics & Text | Print | Product List | Glossary On
Versions: 1 2 3 4 5 6 7 8 9 10 11 12 13 14 15 16 17 18 19 20 21 22 23 24 25 26 27 28 29 30 31 32 33 34 35 36 37 38 39 40 41 42 43 44 45 46 47 48 49 50
213
ASUS43 KLOT 212003
RWRIL

ILLINOIS REGIONAL WEATHER ROUNDUP
NATIONAL WEATHER SERVICE CHICAGO/ROMEOVILLE IL
300 PM CDT SAT APR 21 2018

NOTE: "FAIR" INDICATES FEW OR NO CLOUDS BELOW 12,000 FEET WITH NO
SIGNIFICANT WEATHER AND/OR OBSTRUCTIONS TO VISIBILITY.

* THESE STATIONS ARE NOT UNDER NWS QUALITY CONTROL. THEY ALSO MAY NOT
  REPORT WEATHER SUCH AS PRECIPITATION OR FOG.

ILZ001-002-007-009-015-016-024-212100-
NORTHWEST ILLINOIS

CITY           SKY/WX    TMP DP  RH WIND       PRES   REMARKS
MOLINE         FAIR      61  25  25 SE16G26   30.32F
STERLING*      FAIR      60  31  33 E18       30.35F
SAVANNA*       FAIR      57  34  41 E13       30.38F
$$

ILZ003-004-008-010-011-017-018-212100-
NORTH CENTRAL ILLINOIS

CITY           SKY/WX    TMP DP  RH WIND       PRES   REMARKS
ROCKFORD       LGT RAIN  53  35  50 E5        30.41F
FREEPORT*      LGT RAIN  52  35  51 E8        30.41F
ROCHELLE*      PTSUNNY   54  33  44 E9        30.40F
DE KALB*       DRIZZLE   53  32  44 E6        30.41F
PERU*          FAIR      59  31  35 E12       30.36F
$$

ILZ005-006-012>014-019>023-212100-
NORTHEAST ILLINOIS

CITY           SKY/WX    TMP DP  RH WIND       PRES   REMARKS
CHICAGO-OHARE  CLOUDY    54  24  31 N5        30.41F
CHICAGO-MIDWAY CLOUDY    50  27  40 NE5       30.42F
AURORA         FAIR      55  29  36 NE5       30.40F
LANSING*       PTSUNNY   50  36  58 N3        30.42F
JOLIET*        CLOUDY    55  32  41 NE3       30.41F
WAUKEGAN       FAIR      53  22  29 VRB6      30.41F
DUPAGE AIRPORT CLOUDY    54  29  38 SE5       30.41F
KANKAKEE*      FAIR      59  26  28 E5        30.38F
WHEELING       PTSUNNY   52  22  30 NE6       30.43F
MORRIS*        CLOUDY    57  30  35 NE7       30.39F
ROMEOVILLE*    CLOUDY    54  33  45 NE10      30.40F
NORTHERLY ISL    N/A     42  32  67 NE3         N/A
$$

LMZ740>746-212100-
SOUTHERN LAKE MICHIGAN

STATION/POSITION SKY/WX   TEMP    WIND        PRES    VSBY  WAVE
                          AIR SEA DIR/SP/G                  HT/PER
                          (F)     (DEG/KT/KT) (MB)    (MI)  (FT/S)
HARRISON CRIB              40     360/  3/  3   N/A
BURNHAM HARBOR             41      40/  2/  5   N/A
CALUMET HARBOR             45     320/  3/  4 1029.6F
BURNS HARBOR               42      70/  5/  6 1030.8R
MICHIGAN CITY              42      30/  5/  6   N/A
$$

ILZ025>027-034>036-040-047-049-050-058-095>099-212100-
WEST-CENTRAL ILLINOIS

CITY           SKY/WX    TMP DP  RH WIND       PRES   REMARKS
QUINCY         CLOUDY    61  26  26 E17G26    30.24F
GALESBURG*     FAIR      65  29  26 E13G23    30.30F
MACOMB*        CLOUDY    62  26  25 E15       30.31F
JACKSONVILLE*  CLOUDY    60  29  31 E17       30.25F
PITTSFIELD*    MOSUNNY   62  29  29 E14       30.25F
$$

ILZ028>032-037-038-041>044-048-051>054-059>061-212100-
CENTRAL ILLINOIS

CITY           SKY/WX    TMP DP  RH WIND       PRES   REMARKS
PONTIAC        FAIR      59  26  28 E10       30.37F
BLOOMINGTON    FAIR      60  25  26 E18G26    30.33F
DECATUR        FAIR      63  28  26 E14       30.29F
PEORIA         FAIR      61  25  25 E17G24    30.31F
LACON*         FAIR      58  26  29 E12G17    30.34F
LINCOLN*       FAIR      63  29  27 E8        30.30F
SPRINGFIELD    FAIR      65  29  25 E15G22    30.27F
TAYLORVILLE    FAIR      63  29  27 E13G21    30.27F
$$

ILZ033-039-045-046-055>057-062-063-212100-
EAST-CENTRAL ILLINOIS

CITY           SKY/WX    TMP DP  RH WIND       PRES   REMARKS
CHAMPAIGN      FAIR      64  26  23 E9G18     30.33F
DANVILLE*      FAIR      61  29  29 E8        30.31F
RANTOUL*       FAIR      61  30  31 E12       30.34F
MATTOON        FAIR      64  30  27 E14       30.28F
$$

ILZ079-100>102-212100-
SOUTHWEST ILLINOIS

CITY           SKY/WX    TMP DP  RH WIND       PRES   REMARKS
ALTON          CLOUDY    64  36  34 E12G22    30.22F
BELLEVILLE     CLOUDY    67  33  28 E13G20    30.19F
CAHOKIA*       CLOUDY    68  31  25 E17G24    30.19F
SPARTA*        MOSUNNY   67  41  39 E16G22    30.20F
$$

ILZ064>066-069>071-074>076-080>082-084>086-088>090-092>094-212100-
SOUTH-CENTRAL ILLINOIS

CITY           SKY/WX    TMP DP  RH WIND       PRES   REMARKS
CARBONDALE     FAIR      70  37  29 E10G20    30.19F
CAIRO*         FAIR      71  38  29 NE12G17   30.16F
EFFINGHAM*     FAIR      65  33  31 E7G16     30.29F
MARION         PTSUNNY   70  34  26 NE6       30.21F
MT. VERNON     FAIR      67  35  30 E13       30.23F
CENTRALIA*     CLOUDY    68  35  29 E12       30.22F
SALEM*         FAIR      68  31  25 E8        30.24F
METROPOLIS*    FAIR      73  32  22 E13       30.18F
$$

ILZ067-068-072-073-078-083-087-091-212100-
SOUTHEAST ILLINOIS

CITY           SKY/WX    TMP DP  RH WIND       PRES   REMARKS
LAWRENCEVILLE  FAIR      66  28  24 NE10      30.29F
FLORA*         FAIR      67  31  26 E12       30.27F
FAIRFIELD*     FAIR      67  32  26 E7        30.24F HAZE
HARRISBURG*    FAIR      67  40  36 NE14      30.23F
ROBINSON*      FAIR      62  32  31 NE9       30.30F
CARMI*         FAIR      69  34  27 E9        30.25F
$$

ABBREVIATIONS USED IN REMARKS
   TC - TEMPERATURE IN CELSIUS
  WCI - WIND CHILL INDEX
   HX - HEAT INDEX
  VSB - VISIBILITY
$$





USA.gov is the U.S. government's official web portal to all federal, state and local government web resources and services.